• MPC Preparation (Info)

  • MPEC 2011-J05 : 2011 JA

    The following Minor Planet Electronic Circular may be linked-to from your own Web pages, but must not otherwise be redistributed electronically.

    A form allowing access to any MPEC is at the bottom of this page.


    Read MPEC 2011-J04 Read MPEC 2011-J06


    M.P.E.C. 2011-J05                                Issued 2011 May 2, 14:25 UT
    
         The Minor Planet Electronic Circulars contain information on unusual
             minor planets and routine data on comets.  They are published
       on behalf of Commission 20 of the International Astronomical Union by the
              Minor Planet Center, Smithsonian Astrophysical Observatory,
                              Cambridge, MA 02138, U.S.A.
    
                 Prepared using the Tamkin Foundation Computer Network
    
                                  MPC@CFA.HARVARD.EDU
                URL https://www.minorplanetcenter.net/    ISSN 1523-6714
    
                                        2011 JA
    
    Observations:
         K11J00A* C2011 05 01.39009 14 46 23.84 +57 01 01.5          18.2 VrEJ005703
         K11J00A  C2011 05 01.40052 14 46 20.85 +57 01 04.3          18.4 VrEJ005703
         K11J00A  C2011 05 01.40573 14 46 19.34 +57 01 05.5          18.2 VrEJ005703
         K11J00A  C2011 05 01.42253 14 46 14.44 +57 01 09.4          18.3 VrEJ005703
         K11J00A  C2011 05 01.43145 14 46 11.92 +57 01 10.8          18.5 VrEJ005703
         K11J00A  C2011 05 01.43591 14 46 10.66 +57 01 11.7          18.4 VrEJ005703
         K11J00A  C2011 05 01.48910 14 45 56.45 +57 01 16.6          19.1 VrEJ005703
         K11J00A  C2011 05 01.48947 14 45 56.45 +57 01 17.7          18.4 VrEJ005703
         K11J00A  C2011 05 01.48981 14 45 56.34 +57 01 17.5          18.0 VrEJ005703
         K11J00A  C2011 05 01.49017 14 45 56.11 +57 01 16.6          18.4 VrEJ005703
         K11J00A  C2011 05 01.60382 14 45 44.35 +57 02 50.5          18.1 RoEJ005300
         K11J00A  C2011 05 01.60581 14 45 43.88 +57 02 52.2          18.1 RoEJ005300
         K11J00A  C2011 05 01.61575 14 45 41.02 +57 02 56.8          18.1 RoEJ005300
         K11J00A  C2011 05 01.62571 14 45 38.27 +57 03 02.1          17.8 RoEJ005300
         K11J00A  C2011 05 01.81450 14 45 06.60 +57 03 37.1          17.8 RvEJ005A99
         K11J00A  C2011 05 01.81691 14 45 06.10 +57 03 38.3          17.9 RvEJ005A99
         K11J00A  C2011 05 01.81932 14 45 05.49 +57 03 40.6          17.9 RvEJ005A99
         K11J00A  C2011 05 01.82171 14 45 04.93 +57 03 42.6          17.8 RvEJ005A99
         K11J00A  C2011 05 01.82556 14 45 04.02 +57 03 45.3          17.9 RvEJ005A99
         K11J00A KC2011 05 01.83936 14 45 01.00 +57 03 53.7          18.0 RcEJ005A24
         K11J00A KC2011 05 01.84080 14 45 00.66 +57 03 54.7          18.0 RcEJ005A24
         K11J00A KC2011 05 01.84225 14 45 00.34 +57 03 55.9          18.0 RcEJ005A24
         K11J00A KC2011 05 01.84368 14 45 00.00 +57 03 57.0          18.0 RcEJ005A24
         K11J00A KC2011 05 01.84512 14 44 59.67 +57 03 58.1          17.9 RcEJ005A24
         K11J00A KC2011 05 01.84655 14 44 59.33 +57 03 59.1          18.1 RcEJ005A24
         K11J00A KC2011 05 01.85129 14 44 57.61 +57 03 55.6          18.4 VuEJ005A74
         K11J00A KC2011 05 01.85628 14 44 56.44 +57 03 59.1          18.4 VuEJ005A74
         K11J00A KC2011 05 01.86198 14 44 55.12 +57 04 03.1          18.6 VuEJ005A74
         K11J00A KC2011 05 01.87088 14 44 52.97 +57 04 08.7          18.4 VuEJ005A74
         K11J00A  C2011 05 01.91391 14 44 44.04 +57 04 20.8          18.1 RoEJ005J16
         K11J00A  C2011 05 01.91756 14 44 43.14 +57 04 22.5          18.0 RoEJ005J16
         K11J00A  C2011 05 01.92116 14 44 42.36 +57 04 24.7          18.0 RoEJ005J16
         K11J00A  C2011 05 01.92475 14 44 41.43 +57 04 27.4          17.9 RoEJ005J16
         K11J00A KC2011 05 01.93449 14 44 37.89 +57 04 53.2          17.8 RvEJ005204
         K11J00A KC2011 05 01.93848 14 44 36.91 +57 04 55.3                vEJ005204
         K11J00A KC2011 05 01.94241 14 44 35.92 +57 04 57.3                vEJ005204
         K11J00A  C2011 05 01.96766 14 44 24.63 +57 05 05.3          18.6 RrEJ005114
         K11J00A  C2011 05 01.97160 14 44 23.67 +57 05 06.1          18.5 RrEJ005114
         K11J00A KC2011 05 01.97305 14 44 29.81 +57 05 12.3                vEJ005I93
         K11J00A  C2011 05 01.97546 14 44 22.77 +57 05 06.5          18.6 RrEJ005114
         K11J00A KC2011 05 01.97819 14 44 28.53 +57 05 14.6          18.1 VvEJ005I93
         K11J00A  C2011 05 01.97938 14 44 21.66 +57 05 07.7          18.7 RrEJ005114
         K11J00A KC2011 05 01.98504 14 44 26.83 +57 05 17.7          18.2 VvEJ005I93
         K11J00A KC2011 05 01.99189 14 44 25.15 +57 05 20.7          18.2 VvEJ005I93
         K11J00A KC2011 05 01.99826 14 44 23.59 +57 05 23.3          18.1 VvEJ005I93
         K11J00A  C2011 05 02.30112 14 43 29.61 +57 07 17.7          18.1  rEJ005718
         K11J00A  C2011 05 02.30811 14 43 27.98 +57 07 20.3          18.5  rEJ005718
         K11J00A  C2011 05 02.31515 14 43 26.25 +57 07 22.8          18.2  rEJ005718
         K11J00A  C2011 05 02.32197 14 43 24.79 +57 07 25.4          18.1  rEJ005718
    
    Observer details:
    114 Engelhardt Observatory, Zelenchukskaya Station.  Observers T. Kryachko,
        B. Satovski.  Measurer T. Kryachko.  0.3-m f/7.7 reflector + CCD.
    204 Schiaparelli Observatory.  Observer L. Buzzi.  0.38-m f/6.8 reflector
        + CCD.
    300 Bisei Spaceguard Center--BATTeRS.  Observers S. Urakawa, N. Hashimoto.
        1.0-m f/3.0 reflector + CCD.
    703 Catalina Sky Survey.  Observer A. R. Gibbs.  Measurers J. D. Ahern,
        E. C. Beshore, A. Boattini, G. J. Garradd, A. R. Gibbs, P. Tricarico,
        A. D. Grauer, R. E. Hill, R. A. Kowalski, S. M. Larson, R. H. McNaught.
        0.68-m Schmidt + CCD.
    718 Wiggins Observatory, Tooele.  Observer P. Wiggins.  0.35-m f/5.5
        Schmidt-Cassegrain + CCD.
    A24 New Millennium Observatory, Mozzate.  Observer E. Cozzi.  0.36-m f/7.6
        Schmidt-Cassegrain + CCD.
    A74 Bergen-Enkheim Observatory.  Observer U. Suessenberger.  0.4-m f/4
        reflector + CCD.
    A99 Osservatorio del Monte Baldo.  Observer C. Flavio.  Measurer M. Claudio.
        0.4-m f/8 Ritchey-Chretien + CCD.
    I93 St Pardon de Conques.  Observer F. Losse.  0.40-m f/5.0 reflector + CCD.
    J16 An Carraig Observatory, Loughinisland.  Observer K. Rooney.  0.25-m f/10.0
        Schmidt-Cassegrain + CCD.
    
    Orbital elements:
    2011 JA                                             PHA, Earth MOID = 0.0002 AU
    Epoch 2011 Feb. 8.0 TT = JDT 2455600.5                  MPC
    M 345.22609              (2000.0)            P               Q
    n   0.75059482     Peri.  287.65260     -0.65628697     -0.64956504
    a   1.1991284      Node   215.11548     +0.62553050     -0.75290067
    e   0.2934072      Incl.   41.86129     -0.42189928     -0.10585765
    P   1.31           H   21.3           G   0.15           U   8
    Residuals in seconds of arc
    110501 703  0.1-  0.0     110501 A99  0.1-  0.4+    110501 204  0.0   0.1+
    110501 703  0.5+  0.1-    110501 A99  0.2-  0.2+    110501 204  0.1-  0.1+
    110501 703  0.5+  0.2-    110501 A24  0.1+  0.0     110501 114  0.6+  0.1-
    110501 703  0.1-  0.1+    110501 A24  0.1+  0.1-    110501 114  0.5+  0.1-
    110501 703  0.1-  0.2-    110501 A24  0.3+  0.1+    110501 I93  0.0   0.2+
    110501 703  0.3-  0.0     110501 A24  0.2+  0.1+    110501 114  0.8+  0.4-
    110501 703  0.6-  0.5-    110501 A24  0.3+  0.2+    110501 I93  0.1-  0.1+
    110501 703  0.2+  0.6+    110501 A24  0.3+  0.2+    110501 114  0.7-  0.1+
    110501 703  0.0   0.4+    110501 A74  0.1-  0.1+    110501 I93  0.2-  0.1+
    110501 703  1.2-  0.6-    110501 A74  0.1-  0.2+    110501 I93  0.1-  0.1+
    110501 300  0.3-  0.4-    110501 A74  0.1+  0.3+    110501 I93  0.0   0.1+
    110501 300  0.5+  0.2+    110501 A74  0.3-  0.1+    110502 718  0.2+  0.6-
    110501 300  0.1+  0.6-    110501 J16  0.1+  0.4+    110502 718  0.1+  0.5-
    110501 300  0.7+  0.4-    110501 J16  0.3-  0.2-    110502 718  0.8-  0.4-
    110501 A99  0.1-  0.4+    110501 J16  0.2+  0.1-    110502 718  0.0   0.1+
    110501 A99  0.4+  0.2-    110501 J16  0.6-  0.4+
    110501 A99  0.1-  0.2+    110501 204  0.0   0.0
    
